FW6253 Weather Reports


Display with metric or nautical units.
time (UTC)temp
F
wind
direction
speed
MPH
gust
MPH
rain 1hr
in
rain 24hr
in
rain mn
in
humidity
%
barometer
mb
20260504012052 71 162 0.0 4.0 0.00 0.00 0.00 49 1016.5
20260504011554 72 162 1.0 4.0 0.00 0.00 0.00 49 1016.5
20260504011051 72 157 0.0 5.0 0.00 0.00 0.00 48 1016.4
20260504010553 72 156 0.0 5.0 0.00 0.00 0.00 48 1016.3
20260504010056 72 153 0.0 6.0 0.00 0.00 0.00 48 1016.2
20260504005553 72 142 0.0 6.0 0.00 0.00 0.00 47 1016.2
20260504005050 72 152 0.0 4.0 0.00 0.00 0.00 47 1016.3
20260504004552 73 140 1.0 5.0 0.00 0.00 0.00 46 1016.3
20260504004052 73 0 1.0 5.0 0.00 0.00 0.00 46 1016.4
20260504003552 73 159 1.0 8.0 0.00 0.00 0.00 46 1016.4
20260504003053 73 185 2.0 8.0 0.00 0.00 0.00 45 1016.5
20260504002552 73 132 2.0 8.0 0.00 0.00 0.00 45 1016.5
20260504002052 74 0 2.0 8.0 0.00 0.00 0.00 45 1016.5
20260504001554 74 120 1.0 10.0 0.00 0.00 0.00 46 1016.5
20260504001049 74 238 3.0 10.0 0.00 0.00 0.00 44 1016.6
20260504000551 74 150 2.0 7.0 0.00 0.00 0.00 45 1016.7
20260504000136 74 157 2.0 11.0 0.00 0.00 0.00 44 1016.8
20260503235552 74 111 1.0 11.0 0.00 0.00 0.00 44 1016.8
20260503235052 74 202 4.0 11.0 0.00 0.00 0.00 43 1016.9
20260503234556 75 134 3.0 8.0 0.00 0.00 0.00 43 1016.9
20260503234054 75 163 1.0 7.0 0.00 0.00 0.00 43 1016.8
20260503233550 75 145 2.0 7.0 0.00 0.00 0.00 43 1017.0
20260503233101 75 179 2.0 8.0 0.00 0.00 0.00 44 1017.0
20260503232555 75 162 3.0 8.0 0.00 0.00 0.00 43 1017.0
20260503232052 75 143 2.0 7.0 0.00 0.00 0.00 43 1017.0
20260503231556 75 134 3.0 7.0 0.00 0.00 0.00 42 1016.9
20260503231053 75 163 2.0 7.0 0.00 0.00 0.00 43 1016.9
20260503230552 75 125 2.0 9.0 0.00 0.00 0.00 40 1017.0
20260503230059 76 180 1.0 9.0 0.00 0.00 0.00 41 1017.1
20260503225552 76 150 3.0 10.0 0.00 0.00 0.00 40 1017.1
20260503225052 76 197 3.0 10.0 0.00 0.00 0.00 41 1017.0
20260503224559 76 146 2.0 9.0 0.00 0.00 0.00 41 1017.0
20260503224050 76 167 2.0 9.0 0.00 0.00 0.00 40 1017.0
20260503223553 76 131 1.0 10.0 0.00 0.00 0.00 40 1017.0
20260503223052 77 178 3.0 11.0 0.00 0.00 0.00 39 1017.1
20260503222552 77 161 3.0 11.0 0.00 0.00 0.00 39 1017.1
20260503222050 77 200 4.0 11.0 0.00 0.00 0.00 39 1017.2
20260503221552 77 140 2.0 10.0 0.00 0.00 0.00 39 1017.3
20260503221054 77 120 3.0 10.0 0.00 0.00 0.00 38 1017.3
20260503220552 76 133 2.0 10.0 0.00 0.00 0.00 39 1017.5
20260503220054 77 157 3.0 10.0 0.00 0.00 0.00 37 1017.5
20260503215552 77 187 3.0 10.0 0.00 0.00 0.00 39 1017.7
20260503215051 77 121 1.0 11.0 0.00 0.00 0.00 38 1017.8
20260503214555 78 141 3.0 11.0 0.00 0.00 0.00 37 1018.0
20260503214056 78 0 1.0 11.0 0.00 0.00 0.00 39 1017.9
20260503213554 78 202 3.0 11.0 0.00 0.00 0.00 37 1018.2
20260503213055 78 195 2.0 9.0 0.00 0.00 0.00 38 1018.0
20260503212553 78 159 2.0 9.0 0.00 0.00 0.00 38 1018.2
20260503212050 78 160 1.0 9.0 0.00 0.00 0.00 39 1018.2
20260503211552 77 151 3.0 9.0 0.00 0.00 0.00 36 1018.3
20260503211052 78 134 2.0 10.0 0.00 0.00 0.00 37 1018.4
20260503210552 78 252 3.0 10.0 0.00 0.00 0.00 36 1018.5
20260503210054 78 176 3.0 9.0 0.00 0.00 0.00 36 1018.8
20260503205552 77 227 1.0 9.0 0.00 0.00 0.00 37 1018.8
20260503205054 77 173 3.0 9.0 0.00 0.00 0.00 35 1019.1
20260503204556 77 208 3.0 11.0 0.00 0.00 0.00 37 1019.1
20260503204051 78 199 4.0 11.0 0.00 0.00 0.00 38 1019.2
20260503203554 78 209 3.0 11.0 0.00 0.00 0.00 37 1019.2
20260503203101 78 147 2.0 7.0 0.00 0.00 0.00 38 1019.4
20260503202553 78 197 1.0 8.0 0.00 0.00 0.00 37 1019.4
20260503202056 79 197 3.0 10.0 0.00 0.00 0.00 35 1019.6
20260503201600 78 157 3.0 10.0 0.00 0.00 0.00 36 1019.6
20260503201056 78 220 5.0 13.0 0.00 0.00 0.00 35 1019.9
20260503200552 78 189 3.0 13.0 0.00 0.00 0.00 38 1019.8
20260503200053 78 143 3.0 13.0 0.00 0.00 0.00 37 1019.9
20260503195554 78 136 3.0 10.0 0.00 0.00 0.00 38 1020.0
20260503195053 78 152 2.0 10.0 0.00 0.00 0.00 37 1020.2
20260503194558 77 115 3.0 10.0 0.00 0.00 0.00 36 1020.2
20260503194052 77 127 4.0 11.0 0.00 0.00 0.00 36 1020.2
20260503193553 77 116 3.0 11.0 0.00 0.00 0.00 39 1020.3
20260503193059 78 171 2.0 10.0 0.00 0.00 0.00 40 1020.2
20260503192552 77 154 3.0 8.0 0.00 0.00 0.00 40 1020.3
20260503192053 77 169 2.0 7.0 0.00 0.00 0.00 40 1020.4
20260503191558 76 114 3.0 11.0 0.00 0.00 0.00 42 1020.4
20260503191058 77 173 4.0 11.0 0.00 0.00 0.00 39 1020.5
20260503190553 78 163 3.0 9.0 0.00 0.00 0.00 40 1020.6
20260503190056 77 130 3.0 9.0 0.00 0.00 0.00 41 1020.5
20260503185552 77 156 3.0 11.0 0.00 0.00 0.00 41 1020.6
20260503185052 77 115 3.0 11.0 0.00 0.00 0.00 43 1020.6
20260503184611 76 119 2.0 11.0 0.00 0.00 0.00 44 1020.9
20260503184053 77 196 3.0 11.0 0.00 0.00 0.00 44 1021.0
20260503183552 77 152 4.0 11.0 0.00 0.00 0.00 42 1021.1
20260503183100 76 136 2.0 10.0 0.00 0.00 0.00 43 1021.2
20260503182553 76 116 3.0 10.0 0.00 0.00 0.00 41 1021.2
20260503182052 76 84 4.0 10.0 0.00 0.00 0.00 41 1021.5
20260503181558 76 150 3.0 9.0 0.00 0.00 0.00 41 1021.5
20260503181053 76 150 3.0 10.0 0.00 0.00 0.00 44 1021.5
20260503180553 75 236 3.0 10.0 0.00 0.00 0.00 44 1021.6
20260503180058 76 162 3.0 12.0 0.00 0.00 0.00 43 1021.7
20260503175552 75 179 4.0 12.0 0.00 0.00 0.00 42 1022.0
20260503175052 76 180 5.0 12.0 0.00 0.00 0.00 45 1022.0
20260503174052 76 186 2.0 10.0 0.00 0.00 0.00 42 1022.1
20260503173555 76 187 3.0 8.0 0.00 0.00 0.00 42 1022.2
20260503173058 76 190 3.0 12.0 0.00 0.00 0.00 44 1022.4
20260503172552 76 167 3.0 12.0 0.00 0.00 0.00 44 1022.4
20260503172112 74 182 2.0 11.0 0.00 0.00 0.00 45 1022.6
20260503171611 75 159 3.0 11.0 0.00 0.00 0.00 43 1022.7
20260503171056 75 169 4.0 14.0 0.00 0.00 0.00 43 1022.7
20260503170552 75 150 5.0 14.0 0.00 0.00 0.00 45 1022.6
20260503150552 70 200 3.0 8.0 0.00 0.00 0.00 54 1023.1
20260503131056 55 0 0.0 0.0 0.00 0.00 0.00 92 1022.2
20260503130552 53 0 0.0 0.0 0.00 0.00 0.00 93 1022.1
20260503110553 48 0 0.0 0.0 0.00 0.00 0.00 92 1021.2
20260503090105 50 0 0.0 0.0 0.00 0.00 0.00 91 1020.6
20260503081555 51 0 0.0 0.0 0.00 0.00 0.00 90 1021.1
20260503081053 50 0 0.0 0.0 0.00 0.00 0.00 91 1020.9
20260503080553 50 0 0.0 0.0 0.00 0.00 0.00 90 1021.0
20260503072556 51 0 0.0 0.0 0.00 0.00 0.00 89 1021.3
20260503072054 51 0 0.0 0.0 0.00 0.00 0.00 89 1021.5
20260503071606 51 0 0.0 0.0 0.00 0.00 0.00 89 1021.5
20260503071053 51 0 0.0 0.0 0.00 0.00 0.00 89 1021.6
20260503070553 52 0 0.0 0.0 0.00 0.00 0.00 89 1021.6
20260503055053 53 0 0.0 0.0 0.00 0.00 0.00 85 1021.6
20260503054600 53 0 0.0 0.0 0.00 0.00 0.00 85 1021.5
20260503054057 53 0 0.0 0.0 0.00 0.00 0.00 85 1021.6
20260503053553 53 0 0.0 0.0 0.00 0.00 0.00 85 1021.5
20260503053055 53 0 0.0 0.0 0.00 0.00 0.00 84 1021.5
20260503052553 54 0 0.0 0.0 0.00 0.00 0.00 84 1021.6
20260503052056 54 0 0.0 0.0 0.00 0.00 0.00 83 1021.6
20260503051556 54 0 0.0 0.0 0.00 0.00 0.00 83 1021.6
20260503051052 54 0 0.0 0.0 0.00 0.00 0.00 82 1021.6
20260503050553 54 0 0.0 0.0 0.00 0.00 0.00 82 1021.5
20260503050055 55 0 0.0 0.0 0.00 0.00 0.00 81 1021.5
20260503045554 55 0 0.0 0.0 0.00 0.00 0.00 81 1021.5
20260503045053 55 0 0.0 0.0 0.00 0.00 0.00 81 1021.4
20260503044556 55 0 0.0 0.0 0.00 0.00 0.00 81 1021.3
20260503044053 55 0 0.0 0.0 0.00 0.00 0.00 81 1021.4
20260503043556 55 0 0.0 0.0 0.00 0.00 0.00 80 1021.4
20260503043054 55 0 0.0 0.0 0.00 0.00 0.00 80 1021.3
20260503042555 56 0 0.0 0.0 0.00 0.00 0.00 80 1021.5
20260503042053 56 0 0.0 0.0 0.00 0.00 0.00 79 1021.6
20260503041551 56 0 0.0 0.0 0.00 0.00 0.00 79 1021.7
20260503041052 56 0 0.0 0.0 0.00 0.00 0.00 79 1021.6
20260503040553 57 0 0.0 0.0 0.00 0.00 0.00 77 1021.5
20260503040053 57 0 0.0 0.0 0.00 0.00 0.00 76 1021.5
20260503035553 58 0 0.0 0.0 0.00 0.00 0.00 75 1021.3
20260503035051 58 0 0.0 0.0 0.00 0.00 0.00 73 1021.2
20260503034551 59 0 0.0 0.0 0.00 0.00 0.00 71 1021.3
20260503034053 59 0 0.0 0.0 0.00 0.00 0.00 70 1021.3
20260503033554 60 0 0.0 0.0 0.00 0.00 0.00 69 1021.3
20260503033050 60 0 0.0 0.0 0.00 0.00 0.00 69 1021.3
20260503032553 60 0 0.0 0.0 0.00 0.00 0.00 69 1021.2
20260503032053 60 0 0.0 0.0 0.00 0.00 0.00 71 1021.2
20260503031554 59 0 0.0 0.0 0.00 0.00 0.00 70 1021.1
20260503031053 60 0 0.0 0.0 0.00 0.00 0.00 68 1021.1
20260503030552 61 0 0.0 0.0 0.00 0.00 0.00 66 1021.0
20260503030059 62 0 0.0 0.0 0.00 0.00 0.00 66 1021.1
20260503025553 62 0 0.0 0.0 0.00 0.00 0.00 64 1021.0
20260503025056 62 0 0.0 0.0 0.00 0.00 0.00 64 1020.9
20260503024555 63 0 0.0 0.0 0.00 0.00 0.00 63 1020.7
20260503024053 63 0 0.0 0.0 0.00 0.00 0.00 62 1020.6
20260503023552 63 0 0.0 0.0 0.00 0.00 0.00 62 1020.7
20260503023104 63 0 0.0 0.0 0.00 0.00 0.00 61 1020.7
20260503022552 63 0 0.0 0.0 0.00 0.00 0.00 61 1020.6
20260503022056 63 0 0.0 0.0 0.00 0.00 0.00 61 1020.5
20260503021558 63 0 0.0 0.0 0.00 0.00 0.00 61 1020.3
20260503021053 64 0 0.0 1.0 0.00 0.00 0.00 60 1020.3
20260503020552 64 0 0.0 1.0 0.00 0.00 0.00 59 1020.2
20260503020057 64 0 0.0 1.0 0.00 0.00 0.00 59 1020.2
20260503015553 64 89 0.0 1.0 0.00 0.00 0.00 58 1020.0
20260503015053 65 0 0.0 1.0 0.00 0.00 0.00 58 1019.9
20260503014550 65 0 0.0 0.0 0.00 0.00 0.00 58 1019.7
20260503014052 65 0 0.0 0.0 0.00 0.00 0.00 57 1019.9
20260503013554 65 0 0.0 0.0 0.00 0.00 0.00 57 1019.8
20260503013055 66 0 0.0 2.0 0.00 0.00 0.00 56 1019.7
20260503012552 66 0 0.0 2.0 0.00 0.00 0.00 55 1019.7